This is the latest recevied weather packets stored in our database for station/object VK3BKO-13. If no packets are shown the sender has not sent any weather packets the latest 10 day(s).
| Time | Temp. | Humidity | Pressure | Rain* | Wind** | Luminosity | Snow |
|---|---|---|---|---|---|---|---|
| 1777576624 | 10.56° C | 89% | 1023.1 hPa | 0 mm | - | 0 W/m² | - |
| 1777575724 | 10.56° C | 88% | 1023.1 hPa | 0 mm | - | 0 W/m² | - |
| 1777574824 | 10.56° C | 88% | 1023.1 hPa | 0 mm | - | 0 W/m² | - |
| 1777573924 | 11.11° C | 88% | 1023.1 hPa | 0 mm | - | 0 W/m² | - |
| 1777573024 | 10.56° C | 88% | 1023.1 hPa | 0 mm | - | 0 W/m² | - |
| 1777572124 | 10.56° C | 88% | 1023.1 hPa | 0 mm | - | 0 W/m² | - |
| 1777571224 | 10.56° C | 88% | 1022.7 hPa | 0 mm | - | 0 W/m² | - |
| 1777570324 | 10.56° C | 87% | 1023.1 hPa | 0 mm | - | 0 W/m² | - |
| 1777569424 | 11.11° C | 87% | 1023.1 hPa | 0 mm | - | 0 W/m² | - |
| 1777568524 | 11.11° C | 86% | 1023.1 hPa | 0 mm | - | 0 W/m² | - |
| 1777567623 | 11.67° C | 87% | 1023.1 hPa | 0 mm | - | 0 W/m² | - |
| 1777566725 | 11.67° C | 85% | 1023.4 hPa | 0 mm | - | 0 W/m² | - |
| 1777565824 | 12.22° C | 85% | 1023.4 hPa | 0 mm | - | 0 W/m² | - |
| 1777564924 | 12.22° C | 84% | 1023.4 hPa | 0 mm | - | 0 W/m² | - |
| 1777564024 | 12.78° C | 84% | 1023.4 hPa | 0 mm | - | 0 W/m² | - |
| 1777563124 | 12.78° C | 83% | 1023.7 hPa | 0 mm | - | 0 W/m² | - |
| 1777562224 | 13.33° C | 84% | 1023.4 hPa | 0 mm | - | 0 W/m² | - |
| 1777561324 | 13.33° C | 82% | 1023.4 hPa | 0 mm | - | 0 W/m² | - |
| 1777560424 | 13.33° C | 82% | 1023.7 hPa | 0 mm | - | 0 W/m² | - |
| 1777559524 | 13.33° C | 81% | 1023.7 hPa | 0 mm | - | 0 W/m² | - |
| 1777558630 | 13.89° C | 80% | 1023.7 hPa | 0 mm | - | 0 W/m² | - |
| 1777557723 | 13.89° C | 80% | 1024.1 hPa | 0 mm | - | 0 W/m² | - |
| 1777556824 | 14.44° C | 78% | 1023.7 hPa | 0 mm | - | 0 W/m² | - |
| 1777555924 | 15.56° C | 74% | 1024.1 hPa | 0 mm | - | 0 W/m² | - |
| 1777555024 | 15.56° C | 73% | 1024.1 hPa | 0 mm | - | 0 W/m² | - |
* Rain latest hour (hover to see other rain measurements)
** Current wind speed in m/s (hover to see current wind gust speed)